Theta_e
319 318 317 317 317 316 316 316 316 315 315 316 317 317 317 316 316 316 316 315 315 314
318 317 316 316 317 316 317 316 315 316 316 316 316 316 316 315 315 315 315 316 315 314
318 317 317 317 316 317 317 317 316 316 316 316 317 317 316 315 315 314 315 315 315 314
318 318 318 318 318 318 318 317 317 316 316 317 317 316 315 314 314 313 313 314 313 314
319 319 318 318 318 318 318 318 318 317 317 317 317 316 314 313 314 313 312 313 312 312
319 319 318 318 319 318 318 318 318 317 317 317 317 315 314 313 313 312 312 312 312 312
319 320 319 320 319 318 318 317 317 317 317 317 316 315 314 313 312 311 311 311 311 310
321 321 320 320 319 318 317 317 317 316 316 316 314 312 312 311 310 309 308 308 308 308
320 320 320 319 317 317 316 316 316 315 315 312 311 306 305 309 308 306 305 305 306 306
320 320 320 317 316 316 315 313 313 311 310 309 308 302 301 303 306 304 304 304 304 304
319 317 316 316 314 311 310 310 308 307 307 306 306 301 299 300 304 303 303 303 303 303
317 315 315 313 309 307 306 305 305 305 304 303 304 299 298 300 302 302 302 302 303 303
316 313 310 307 305 304 305 304 303 303 303 302 303 298 297 299 301 300 300 301 300 299
306 305 305 304 305 304 303 303 302 301 301 301 300 300 296 296 299 298 298 297 298 300
Wind_Speed
11 9 8 10 8 7 6 5 6 6 6 6 6 5 4 2 1 2 1 3 2 2
10 10 10 9 7 7 6 5 7 6 6 5 5 5 4 2 2 2 2 3 3 3
12 11 11 10 9 9 7 7 8 7 6 5 4 4 4 2 2 3 2 3 3 3
13 12 12 10 9 10 7 8 8 7 6 5 5 4 3 4 4 4 4 3 4 6
12 10 12 11 9 10 10 8 8 7 6 5 5 4 5 4 4 5 4 4 4 8
12 11 10 11 11 10 9 9 7 6 6 6 5 4 5 5 5 4 4 5 7 8
14 13 11 11 11 10 9 9 7 6 6 5 5 5 4 5 4 3 4 6 7 9
13 11 11 11 10 8 8 7 7 7 5 5 5 4 5 3 3 3 6 7 9 9
13 12 13 10 9 9 9 8 7 7 7 6 4 5 1 1 3 4 7 8 9 8
12 13 11 10 10 9 9 6 6 5 5 4 2 3 6 5 4 5 7 9 9 9
9 8 9 9 8 7 6 7 6 5 4 2 3 5 8 8 6 6 9 9 10 10
10 9 9 9 9 5 5 4 4 3 4 3 5 6 7 7 7 8 10 9 11 10
7 10 9 8 8 4 5 5 5 4 3 3 5 5 8 9 6 9 8 8 10 14
9 9 10 8 4 5 5 5 3 1 0 3 3 6 10 11 8 9 8 8 9 10
Wind_Direction
182 178 164 162 162 168 166 155 155 147 143 139 127 113 115 107 130 183 221 257 220 256
178 166 157 150 152 158 145 149 153 148 136 138 130 131 145 158 194 189 229 253 250 247
170 156 151 151 156 158 152 150 150 146 147 150 154 150 157 199 214 208 234 243 256 261
164 168 151 155 160 161 147 156 156 155 157 169 178 175 191 222 234 235 245 247 263 271
159 161 151 147 159 157 164 162 162 158 166 175 190 188 212 233 236 235 265 279 276 273
158 156 158 154 161 167 162 168 157 151 170 191 201 197 220 235 252 254 266 269 265 268
166 167 162 160 167 170 173 159 151 170 181 195 199 211 224 238 252 274 263 259 260 268
165 160 152 165 175 163 155 158 165 162 184 195 199 214 212 223 263 261 267 262 265 268
161 157 164 169 167 155 154 163 161 176 184 192 206 192 244 281 289 275 265 272 272 269
163 164 158 145 150 162 156 139 160 163 164 188 238 314 297 287 269 262 266 265 274 282
133 122 122 136 148 136 145 158 148 148 152 189 261 274 275 279 284 269 264 267 268 272
129 130 147 151 151 135 138 123 130 138 164 219 274 263 284 298 284 278 274 268 266 272
126 148 136 132 127 128 120 133 143 160 176 221 279 305 300 289 292 285 283 275 287 277
78 92 111 108 90 107 106 110 114 113 330 341 299 292 287 291 289 280 287 295 290 279